Regional Weather Roundup
Issued by NWS

Home | Current Version | Previous Version | Graphics & Text | Print | Product List | Glossary On
Versions: 1 2 3 4 5 6 7 8 9 10 11 12 13 14 15 16 17 18 19 20 21 22 23 24 25 26 27 28 29 30 31 32 33 34 35 36 37 38 39 40 41 42 43 44 45 46 47 48 49 50
000
ASUS43 KMKX 252321
RWRWI

WISCONSIN REGIONAL WEATHER ROUNDUP
NATIONAL WEATHER SERVICE MILWAUKEE/SULLIVAN WI
500 PM CST SAT FEB 25 2017

NOTE: "FAIR" INDICATES FEW OR NO CLOUDS BELOW 12,000 FEET WITH NO
SIGNIFICANT WEATHER AND/OR OBSTRUCTIONS TO VISIBILITY.

WIZ001-002-006>008-014>016-023>028-260000-
NORTHWEST WISCONSIN

CITY           SKY/WX    TMP DP  RH WIND       PRES   REMARKS
SUPERIOR ARPT  CLOUDY    29  14  53 W8        29.80F WCI  22
ASHLAND        CLEAR     28  11  48 W12       29.80F WCI  18
HAYWARD        CLEAR     29   9  43 W8        29.80S WCI  21
SIREN          CLOUDY    31  15  51 W14       29.83F WCI  20
CUMBERLAND     MOCLDY    28  12  50 W13       29.83S WCI  18
RICE LAKE      PTCLDY    28  13  51 CALM      29.86S
CHETEK         PTCLDY    28  11  48 W5        29.86R WCI  23
LADYSMITH      CLEAR     28  10  47 W7        29.85R WCI  20
EAU CLAIRE     CLEAR     26   9  48 SW8       29.88S WCI  18
MENOMONIE      MOCLDY    29  11  46 SW8       29.88S WCI  21
NEW RICHMOND   CLOUDY    31  14  49 W14       29.87S WCI  21
OSCEOLA        CLOUDY    32  17  54 W10       29.89F WCI  23
$$

WIZ003>005-009-010-017-018-260000-
NORTH CENTRAL WISCONSIN

CITY           SKY/WX    TMP DP  RH WIND       PRES   REMARKS
MANITOWISH WTR PTCLDY    20   9  63 NW9       29.75S WCI   9
ARBOR VITAE    PTCLDY    23  10  55 NW7         N/A  WCI  15
WOODRUFF       PTCLDY    23  10  55 NW7         N/A  WCI  15
RHINELANDER    PTCLDY    24   7  48 NW10G22   29.76R WCI  14
EAGLE RIVER    CLEAR     20   8  58 NW10G18   29.74S WCI   9
LAND O LAKES   CLEAR     21  11  67 W6        29.75R WCI  13
PHILLIPS       CLEAR     25   7  47 W7        29.78S WCI  17
TOMAHAWK       PTCLDY    24   8  49 W10G16    29.79S WCI  13
MEDFORD        CLEAR     23   6  48 W9G20     29.81S WCI  13
MERRILL        NOT AVBL
$$

WIZ029-030-035-036-043>047-260000-
CENTRAL WISCONSIN

CITY           SKY/WX    TMP DP  RH WIND       PRES   REMARKS
WAUSAU         CLEAR     23   7  50 W12       29.81S WCI  12
MOSINEE        CLEAR     21   9  58 W13       29.84S WCI   9
MARSHFIELD     CLEAR     22   6  50 W10       29.85R WCI  11
STEVENS POINT  CLEAR     22   6  51 W10G17    29.86S WCI  11
WAUPACA        CLEAR     24   7  48 W10       29.89R WCI  14
WAUTOMA        CLEAR     22  10  60 W13       29.90R WCI  10
WISC RAPIDS    CLEAR     25   8  48 W10       29.88S WCI  15
CAMP DOUGLAS   CLEAR     24   9  52 W12       29.91R WCI  13
$$

WIZ011>013-019>022-031-037>040-048>050-260000-
NORTHEAST WISCONSIN

CITY           SKY/WX    TMP DP  RH WIND       PRES   REMARKS
ANTIGO         CLEAR     21   6  54 W8        29.78S WCI  11
SHAWANO        CLEAR     24   9  53 W8        29.86R WCI  15
OCONTO         MOCLDY    23  10  57 W15G25    29.83R WCI  10
STURGEON BAY   PTCLDY    23  15  71 W12       29.82R WCI  12
GREEN BAY      CLEAR     22  11  62 W13       29.87R WCI  10
MANITOWOC      CLEAR     21  12  68 W14       29.87R WCI   8
APPLETON       PTCLDY    19   7  58 W12       29.85R WCI   7
CLINTONVILLE   CLEAR     23   9  54 W8        29.86R WCI  14
OSHKOSH        CLEAR     22   9  57 W12       29.88R WCI  10
$$

WIZ032>034-041-042-053>061-260000-
SOUTHWEST WISCONSIN

CITY           SKY/WX    TMP DP  RH WIND       PRES   REMARKS
LA CROSSE      CLEAR     28  10  46 W9        29.96S WCI  19
SPARTA         CLEAR     25  11  55 SW8       29.94S WCI  17
VIROQUA        CLEAR     24  10  57 W8        29.93R WCI  14
BOSCOBEL       CLEAR     28  10  46 W10       29.98R WCI  19
PRAIRIE DU CHI CLEAR     26  12  55 W10       30.00R WCI  16
PLATTEVILLE    CLEAR     25  16  66 W7        29.97R WCI  18
$$

WIZ056-057-062-063-064-067-068-260000-
SOUTH CENTRAL WISCONSIN

CITY           SKY/WX    TMP DP  RH WIND       PRES   REMARKS
REEDSBURG      CLEAR     24  10  54 W8        29.93R WCI  16
BARABOO/DELLS  CLEAR     24  10  56 W7        29.92R WCI  16
LONE ROCK      CLEAR     26  11  52 W13       29.96R WCI  15
MINERAL POINT  CLEAR     27  18  69 W5        29.94S WCI  21
MADISON        MOCLDY    24  11  57 W7        29.93R WCI  16
MIDDLETON      CLEAR     25  17  69 W6        29.93R WCI  18
WATERTOWN      CLEAR     23  13  65 W12       29.92R WCI  12
MONROE         CLEAR     27  14  59 W10G20    29.94R WCI  17
JANESVILLE     PTCLDY    27  14  59 NW13      29.94R WCI  16
$$

WIZ051-052-058>065-066-070>072-260000-
SOUTHEAST WISCONSIN

CITY           SKY/WX    TMP DP  RH WIND       PRES   REMARKS
MILWAUKEE      MOCLDY    24  12  60 W14G23    29.92R WCI  12
WAUKESHA       PTCLDY    19  10  68 W17G26    29.92R WCI   4
MILWAUKEE/TIMM MOCLDY    21  12  68 W17G23    29.92R WCI   7
RACINE         MOCLDY    24  12  60 W12       29.94R WCI  13
KENOSHA        PTCLDY    24  14  65 NW13      29.93R WCI  12
FOND DU LAC    FLURRIES  22  10  60 W12       29.90R WCI  10
SHEBOYGAN      CLEAR     21  12  68 W15       29.87R WCI   8
WEST BEND      PTCLDY    21  16  79 W7        29.90R WCI  13
JUNEAU         CLEAR     21  12  68 W5        29.92R WCI  15
$$

LSZ147-162-260000-
LAKE SUPERIOR

STATION/POSITION TIME  TEMP    WIND        PRES    WAVE
                       AIR SEA DIR/SP/G            HT/PER
                 (UTC) (F)     (DEG/KT/KT) (MB)    (FT/S)
DEVILS ISLAND    2300   26     250/ 20/ 24 1009.4S
PORT WING        2240   27     260/ 12/ 15 1009.8S
SAXON HARBOR     2230   27     260/  5/ 13 1009.5R
$$

LMZ867-665-643>646-260000-
LAKE MICHIGAN

STATION/POSITION TIME  TEMP    WIND        PRES    WAVE
                       AIR SEA DIR/SP/G            HT/PER
                 (UTC) (F)     (DEG/KT/KT) (MB)    (FT/S)
CHAMBERS ISLAND  2140   26      CALM  /  2 1007.8R
NORTHPORT PIER   2240   25     300/  3/  4 1008.5R
SISTER BAY       2235   23        CALM       N/A
KEWAUNEE LAKESHO 2254   23     280/ 11/ 17 1009.9R
SHEBOYGAN LAKESH 2300   22     280/ 13/ 15 1012.9R
PORT WASHINGTON  2300   23     280/  7/ 22 1013.5
MILWAUKEE LAKESH 2300   23     280/ 18/ 24   N/A
KENOSHA   LAKESH 2300   24     290/ 10/ 20 1013.9
$$

TC  - TEMPERATURE IN CELSIUS
VSB - VISIBILITY IN STATUTE MILES
WCI - WIND CHILL INDEX
HX  - HEAT INDEX




USA.gov is the U.S. government's official web portal to all federal, state and local government web resources and services.